Terminal Aerodrome Forecast
Issued by NWS

Home | Current Version | Previous Version | Text Only | Print | Product List | Glossary On
Versions: 1 2 3 4 5 6 7 8 9 10 11 12
000
FTUS46 KSTO 181700
TAFSCK
TAF
KSCK 181737Z 1818/1918 31012KT P6SM SKC
     FM190300 27011KT P6SM SKC=

USA.gov is the U.S. government's official web portal to all federal, state and local government web resources and services.